| time (UTC) | temp F | wind direction | speed MPH | gust MPH | rain 1hr in | rain 24hr in | rain mn in | humidity % | barometer mb |
| 20260831204510 | 62 | 230 | 5.0 | 0.0 | 0.00 | 0.00 | 0.00 | 78 | 1006.6 |
| 20260831203009 | 62 | 210 | 6.0 | 0.0 | 0.00 | 0.00 | 0.00 | 78 | 1006.6 |
| 20260831201509 | 63 | 240 | 4.0 | 0.0 | 0.00 | 0.00 | 0.00 | 76 | 1006.3 |
| 20260831200009 | 63 | 240 | 4.0 | 0.0 | 0.00 | 0.00 | 0.00 | 76 | 1006.3 |
| 20260831194509 | 62 | 240 | 4.0 | 0.0 | 0.00 | 0.00 | 0.00 | 77 | 1005.8 |
| 20260831193010 | 62 | 250 | 5.0 | 0.0 | 0.00 | 0.00 | 0.00 | 77 | 1005.8 |
| 20260831191509 | 64 | 250 | 5.0 | 0.0 | 0.00 | 0.00 | 0.00 | 70 | 1006.0 |
| 20260831190010 | 64 | 250 | 11.0 | 0.0 | 0.00 | 0.00 | 0.00 | 70 | 1006.0 |
| 20260831184509 | 67 | 250 | 11.0 | 0.0 | 0.00 | 0.00 | 0.00 | 70 | 1006.0 |
| 20260831183009 | 67 | 250 | 7.0 | 0.0 | 0.00 | 0.00 | 0.00 | 70 | 1006.0 |
| 20260831181509 | 67 | 250 | 7.0 | 0.0 | 0.00 | 0.00 | 0.00 | 71 | 1005.6 |
| 20260831180009 | 67 | 270 | 8.0 | 0.0 | 0.00 | 0.00 | 0.00 | 71 | 1005.6 |
| 20260831174509 | 75 | 270 | 8.0 | 0.0 | 0.00 | 0.00 | 0.00 | 44 | 1004.6 |
| 20260831173010 | 75 | 220 | 10.0 | 0.0 | 0.00 | 0.00 | 0.00 | 44 | 1004.6 |
| 20260831171510 | 76 | 220 | 10.0 | 0.0 | 0.00 | 0.00 | 0.00 | 44 | 1004.5 |
| 20260831170009 | 76 | 220 | 11.0 | 0.0 | 0.00 | 0.00 | 0.00 | 44 | 1004.5 |
| 20260831164509 | 76 | 240 | 10.0 | 0.0 | 0.00 | 0.00 | 0.00 | 44 | 1004.5 |
| 20260831163009 | 76 | 240 | 10.0 | 0.0 | 0.00 | 0.00 | 0.00 | 44 | 1004.5 |
| 20260831161511 | 77 | 240 | 10.0 | 0.0 | 0.00 | 0.00 | 0.00 | 45 | 1004.7 |
| 20260831160010 | 77 | 230 | 12.0 | 0.0 | 0.00 | 0.00 | 0.00 | 45 | 1004.7 |
| 20260831154509 | 77 | 240 | 13.0 | 0.0 | 0.00 | 0.00 | 0.00 | 46 | 1004.6 |
| 20260831153009 | 77 | 240 | 13.0 | 0.0 | 0.00 | 0.00 | 0.00 | 46 | 1004.6 |
| 20260831151509 | 77 | 240 | 13.0 | 0.0 | 0.00 | 0.00 | 0.00 | 49 | 1004.7 |
| 20260831150010 | 77 | 230 | 11.0 | 0.0 | 0.00 | 0.00 | 0.00 | 49 | 1004.7 |
| 20260831144510 | 76 | 230 | 11.0 | 0.0 | 0.00 | 0.00 | 0.00 | 50 | 1004.8 |
| 20260831143009 | 76 | 230 | 11.0 | 0.0 | 0.00 | 0.00 | 0.00 | 50 | 1004.8 |
| 20260831141509 | 77 | 230 | 11.0 | 0.0 | 0.00 | 0.00 | 0.00 | 48 | 1005.0 |
| 20260831140009 | 77 | 230 | 13.0 | 0.0 | 0.00 | 0.00 | 0.00 | 48 | 1005.0 |
| 20260831134510 | 76 | 230 | 13.0 | 0.0 | 0.00 | 0.00 | 0.00 | 52 | 1005.1 |
| 20260831133009 | 76 | 210 | 12.0 | 0.0 | 0.00 | 0.00 | 0.00 | 52 | 1005.1 |
| 20260831131509 | 75 | 220 | 8.0 | 0.0 | 0.00 | 0.00 | 0.00 | 54 | 1005.2 |
| 20260831130009 | 75 | 220 | 8.0 | 0.0 | 0.00 | 0.00 | 0.00 | 54 | 1005.2 |
| 20260831124509 | 74 | 220 | 8.0 | 0.0 | 0.00 | 0.00 | 0.00 | 58 | 1005.4 |
| 20260831123009 | 74 | 220 | 10.0 | 0.0 | 0.00 | 0.00 | 0.00 | 58 | 1005.4 |
| 20260831121509 | 74 | 220 | 10.0 | 0.0 | 0.00 | 0.00 | 0.00 | 59 | 1005.5 |
| 20260831120009 | 74 | 210 | 10.0 | 0.0 | 0.00 | 0.00 | 0.00 | 59 | 1005.5 |
| 20260831114510 | 73 | 210 | 10.0 | 0.0 | 0.00 | 0.00 | 0.00 | 62 | 1005.6 |
| 20260831113010 | 73 | 210 | 7.0 | 0.0 | 0.00 | 0.00 | 0.00 | 62 | 1005.6 |
| 20260831111510 | 71 | 220 | 8.0 | 0.0 | 0.00 | 0.00 | 0.00 | 66 | 1005.7 |
| 20260831110009 | 71 | 220 | 8.0 | 0.0 | 0.00 | 0.00 | 0.00 | 66 | 1005.7 |
| 20260831104509 | 69 | 220 | 8.0 | 0.0 | 0.00 | 0.00 | 0.00 | 73 | 1005.9 |
| 20260831103010 | 69 | 230 | 8.0 | 0.0 | 0.00 | 0.00 | 0.00 | 73 | 1005.9 |
| 20260831101509 | 66 | 230 | 6.0 | 0.0 | 0.00 | 0.00 | 0.00 | 80 | 1006.0 |
| 20260831100009 | 66 | 230 | 6.0 | 0.0 | 0.00 | 0.00 | 0.00 | 80 | 1006.0 |
| 20260831094509 | 61 | 210 | 4.0 | 0.0 | 0.00 | 0.00 | 0.00 | 89 | 1006.3 |
| 20260831093010 | 61 | 210 | 4.0 | 0.0 | 0.00 | 0.00 | 0.00 | 89 | 1006.3 |
| 20260831091510 | 60 | 180 | 5.0 | 0.0 | 0.00 | 0.00 | 0.00 | 90 | 1006.2 |
| 20260831090009 | 60 | 180 | 5.0 | 0.0 | 0.00 | 0.00 | 0.00 | 90 | 1006.2 |
| 20260831084509 | 60 | 210 | 5.0 | 0.0 | 0.00 | 0.00 | 0.00 | 88 | 1006.3 |
| 20260831083010 | 60 | 210 | 5.0 | 0.0 | 0.00 | 0.00 | 0.00 | 88 | 1006.3 |
| 20260831081509 | 60 | 210 | 5.0 | 0.0 | 0.00 | 0.00 | 0.00 | 85 | 1006.1 |
| 20260831080010 | 60 | 220 | 5.0 | 0.0 | 0.00 | 0.00 | 0.00 | 85 | 1006.1 |
| 20260831074510 | 63 | 220 | 5.0 | 0.0 | 0.00 | 0.00 | 0.00 | 74 | 1005.9 |
| 20260831073009 | 63 | 180 | 4.0 | 0.0 | 0.00 | 0.00 | 0.00 | 74 | 1005.9 |
| 20260831071509 | 64 | 130 | 2.0 | 0.0 | 0.00 | 0.00 | 0.00 | 71 | 1005.5 |
| 20260831070009 | 64 | 130 | 2.0 | 0.0 | 0.00 | 0.00 | 0.00 | 71 | 1005.5 |
| 20260831064509 | 62 | 130 | 2.0 | 0.0 | 0.00 | 0.00 | 0.00 | 78 | 1005.6 |
| 20260831063010 | 62 | 50 | 1.0 | 0.0 | 0.00 | 0.00 | 0.00 | 78 | 1005.6 |
| 20260831060009 | 62 | 140 | 3.0 | 0.0 | 0.00 | 0.00 | 0.00 | 73 | 1005.6 |
| 20260831054510 | 60 | 110 | 1.0 | 0.0 | 0.00 | 0.00 | 0.00 | 79 | 1005.9 |
| 20260831053010 | 60 | 110 | 1.0 | 0.0 | 0.00 | 0.00 | 0.00 | 79 | 1005.9 |
| 20260831051510 | 60 | 110 | 1.0 | 0.0 | 0.00 | 0.00 | 0.00 | 79 | 1005.6 |
| 20260831050009 | 60 | 140 | 3.0 | 0.0 | 0.00 | 0.00 | 0.00 | 79 | 1005.6 |
| 20260831044510 | 60 | 160 | 2.0 | 0.0 | 0.00 | 0.00 | 0.00 | 77 | 1006.1 |
| 20260831043009 | 60 | 160 | 2.0 | 0.0 | 0.00 | 0.00 | 0.00 | 77 | 1006.1 |
| 20260831041510 | 57 | 180 | 1.0 | 0.0 | 0.00 | 0.00 | 0.00 | 85 | 1006.3 |
| 20260831040010 | 57 | 180 | 1.0 | 0.0 | 0.00 | 0.00 | 0.00 | 85 | 1006.3 |
| 20260831034510 | 59 | 180 | 1.0 | 0.0 | 0.00 | 0.00 | 0.00 | 81 | 1006.3 |
| 20260831033009 | 59 | 170 | 1.0 | 0.0 | 0.00 | 0.00 | 0.00 | 81 | 1006.3 |
| 20260831031509 | 61 | 170 | 1.0 | 0.0 | 0.00 | 0.00 | 0.00 | 77 | 1006.4 |
| 20260831030009 | 61 | 190 | 3.0 | 0.0 | 0.00 | 0.00 | 0.00 | 77 | 1006.4 |